Regional Weather Roundup
Issued by NWS

Home | Current Version | Previous Version | Text Only | Print | Product List | Glossary Off
Versions: 1 2 3 4 5 6 7 8 9 10 11 12 13 14 15 16 17 18 19 20 21 22 23 24 25 26 27 28 29 30 31 32 33 34 35 36 37 38 39 40 41 42 43 44 45 46 47 48 49 50

300
ASUS43 KFSD 111502
RWRSD

WEATHER ROUNDUP FOR SOUTH DAKOTA
NATIONAL WEATHER SERVICE SIOUX FALLS SD
900 AM CST THU FEB 11 2016

NOTE: "FAIR" INDICATES FEW OR NO CLOUDS BELOW 12,000 FEET WITH NO
SIGNIFICANT WEATHER AND/OR OBSTRUCTIONS TO VISIBILITY.


SDZ001>005-009-010-012>017-111600-
NORTHWEST AND NORTH CENTRAL SOUTH DAKOTA

CITY           SKY/WX    TMP DP  RH WIND       PRES   REMARKS
BUFFALO          N/A     31  28  89 S12       29.89F WCI  22
FAITH            N/A     28  25  88 S13       30.01S WCI  17
MOBRIDGE       LGT SNOW  22  19  89 SE10      30.06F FOG     WCI  11
$$

SDZ012>016-024>037-041>051-057-063-072>074-111600-
SOUTHWEST AND SOUTH CENTRAL SOUTH DAKOTA

CITY           SKY/WX    TMP DP  RH WIND       PRES   REMARKS
RAPID CTY ARPT FOG       28  27  96 CALM      30.00R VSB<1/4
PIERRE         LGT SNOW  24  21  88 SE12      30.09F FOG     WCI  13
CUSTER         CLOUDY    44  22  41 NW14G29   30.00S
ELLSWORTH AFB  CLOUDY    28  28 100 W5        30.00  WCI  23
PHILIP         CLOUDY    31  27  85 E8        30.04S WCI  23
PINE RIDGE     CLOUDY    38  27  64 W6        30.01F
WINNER         CLOUDY    29  24  82 SE10      30.11F WCI  20
$$

SDZ004>011-016>023-039-040-111600-
NORTHEAST SOUTH DAKOTA

CITY           SKY/WX    TMP DP  RH WIND       PRES   REMARKS
ABERDEEN       CLOUDY    17  12  80 S8        30.20S WCI   7
WATERTOWN      CLOUDY    13   7  77 S10       30.18S WCI   0
BROOKINGS      CLOUDY    12   6  77 S13       30.20F WCI  -3
SISSETON         N/A      9   3  77 S6        30.23S WCI  -1
$$

SDZ017-020-022-023-036>040-048>070-111600-
SOUTHEAST SOUTH DAKOTA

CITY           SKY/WX    TMP DP  RH WIND       PRES   REMARKS
SIOUX FALLS    CLOUDY    14   5  67 SE9       30.24F WCI   2
HURON          CLOUDY    18  13  80 S12       30.20S WCI   5
MITCHELL       CLOUDY    19  14  81 SE9       30.22S WCI   8
YANKTON        CLOUDY    18  10  73 SE10      30.24F WCI   6
$$

ABBREVIATIONS USED IN REMARKS
   TC - TEMPERATURE IN CELSIUS
  WCI - WIND CHILL INDEX
   HX - HEAT INDEX
  VSB - VISIBILITY





USA.gov is the U.S. government's official web portal to all federal, state and local government web resources and services.